When you browse on this site, cookies collect data to enhance your experience and personalize the content and advertising you see.
Visit our Privacy Policy to learn more. By continuing to use the site, you agree to this use of cookies and data.
  • In United Kingdom
  • List of Countries
  • For 7 days
  • Water Temperature
  • Weather Map
  • Weather Widgets
  • user-avatar
    Login

    Hourly Weather Arakkonam

    Today, 6 April, Monday

    Time Temperature Precipitation Wind Pressure Humidity
    00:00 +28°C° 0 mm 1 mps 751 mmHg 90%
    01:00 +28°C° 0 mm 1 mps 751 mmHg 90%
    02:00 +28°C° 0 mm 1 mps 750 mmHg 90%
    03:00 +28°C° 0 mm 1 mps 750 mmHg 88%
    04:00 +28°C° 0 mm 2 mps 751 mmHg 87%
    05:00 +29°C° 0 mm 2 mps 751 mmHg 85%
    06:00 +30°C° 0 mm 3 mps 751 mmHg 78%
    07:00 +31°C° 0 mm 3 mps 752 mmHg 72%
    08:00 +33°C° 0 mm 4 mps 752 mmHg 65%
    09:00 +34°C° 0 mm 4 mps 752 mmHg 58%
    10:00 +36°C° 0 mm 4 mps 752 mmHg 50%
    11:00 +38°C° 0 mm 3 mps 752 mmHg 43%
    12:00 +39°C° 0 mm 3 mps 751 mmHg 37%
    13:00 +42°C° 0 mm 3 mps 750 mmHg 32%
    14:00 +43°C° 0 mm 4 mps 749 mmHg 26%
    15:00 +41°C° 0 mm 5 mps 749 mmHg 33%
    16:00 +40°C° 0 mm 6 mps 748 mmHg 40%
    17:00 +38°C° 0 mm 7 mps 748 mmHg 50%
    18:00 +34°C° 0.1 mm 6 mps 749 mmHg 61%
    19:00 +32°C° 0.1 mm 4 mps 750 mmHg 72%
    20:00 +29°C° 0.1 mm 2 mps 751 mmHg 82%
    21:00 +29°C° 0 mm 2 mps 751 mmHg 85%
    22:00 +28°C° 0 mm 1 mps 751 mmHg 88%
    23:00 +28°C° 0 mm 1 mps 751 mmHg 91%

    Tomorrow, 7 April, Tuesday

    Time Temperature Precipitation Wind Pressure Humidity
    00:00 +27°C° 0 mm 1 mps 751 mmHg 93%
    01:00 +27°C° 0 mm 1 mps 750 mmHg 94%
    02:00 +27°C° 0 mm 1 mps 749 mmHg 96%
    03:00 +26°C° 0 mm 1 mps 749 mmHg 96%
    04:00 +26°C° 0 mm 1 mps 749 mmHg 96%
    05:00 +26°C° 0 mm 2 mps 750 mmHg 96%
    06:00 +28°C° 0 mm 2 mps 750 mmHg 86%
    07:00 +30°C° 0 mm 3 mps 751 mmHg 75%
    08:00 +33°C° 0 mm 4 mps 751 mmHg 65%
    09:00 +35°C° 0 mm 4 mps 751 mmHg 54%
    10:00 +37°C° 0 mm 4 mps 751 mmHg 42%
    11:00 +41°C° 0 mm 4 mps 750 mmHg 31%
    12:00 +41°C° 0 mm 4 mps 749 mmHg 28%
    13:00 +42°C° 0 mm 4 mps 749 mmHg 25%
    14:00 +43°C° 0 mm 4 mps 748 mmHg 23%
    15:00 +41°C° 0 mm 5 mps 747 mmHg 28%
    16:00 +40°C° 0 mm 6 mps 747 mmHg 34%
    17:00 +38°C° 0 mm 7 mps 747 mmHg 39%
    18:00 +35°C° 0 mm 6 mps 748 mmHg 51%
    19:00 +32°C° 0 mm 4 mps 749 mmHg 62%
    20:00 +29°C° 0 mm 3 mps 750 mmHg 74%
    21:00 +28°C° 0 mm 2 mps 750 mmHg 77%
    22:00 +28°C° 0 mm 2 mps 750 mmHg 81%
    23:00 +27°C° 0 mm 1 mps 750 mmHg 84%

    Day after tomorrow, 8 April, Wednesday

    Time Temperature Precipitation Wind Pressure Humidity
    00:00 +27°C° 0 mm 2 mps 750 mmHg 85%
    01:00 +27°C° 0 mm 2 mps 749 mmHg 86%
    02:00 +27°C° 0 mm 2 mps 749 mmHg 87%
    03:00 +27°C° 0 mm 2 mps 749 mmHg 87%
    04:00 +27°C° 0 mm 2 mps 749 mmHg 87%
    05:00 +26°C° 0 mm 2 mps 749 mmHg 87%
    06:00 +28°C° 0 mm 3 mps 750 mmHg 80%
    07:00 +30°C° 0 mm 3 mps 751 mmHg 72%
    08:00 +33°C° 0 mm 4 mps 751 mmHg 64%
    09:00 +35°C° 0 mm 3 mps 751 mmHg 52%
    10:00 +38°C° 0 mm 3 mps 751 mmHg 40%
    11:00 +40°C° 0 mm 3 mps 751 mmHg 27%
    12:00 +41°C° 0 mm 2 mps 750 mmHg 25%
    13:00 +42°C° 0 mm 2 mps 749 mmHg 22%
    14:00 +43°C° 0 mm 1 mps 748 mmHg 20%
    15:00 +42°C° 0 mm 3 mps 748 mmHg 26%
    16:00 +40°C° 0 mm 5 mps 747 mmHg 32%
    17:00 +39°C° 0 mm 7 mps 747 mmHg 37%
    18:00 +35°C° 0 mm 5 mps 748 mmHg 48%
    19:00 +33°C° 0 mm 3 mps 749 mmHg 58%
    20:00 +30°C° 0 mm 2 mps 749 mmHg 68%
    21:00 +29°C° 0 mm 2 mps 749 mmHg 72%
    22:00 +29°C° 0 mm 2 mps 749 mmHg 75%
    23:00 +28°C° 0 mm 2 mps 749 mmHg 79%

    9 April, Thursday

    Time Temperature Precipitation Wind Pressure Humidity
    00:00 +28°C° 0 mm 2 mps 749 mmHg 81%
    01:00 +28°C° 0 mm 2 mps 749 mmHg 84%
    02:00 +28°C° 0 mm 3 mps 748 mmHg 86%
    03:00 +27°C° 0 mm 2 mps 749 mmHg 86%
    04:00 +27°C° 0 mm 2 mps 749 mmHg 86%
    05:00 +27°C° 0 mm 2 mps 749 mmHg 86%
    06:00 +29°C° 0 mm 2 mps 750 mmHg 77%
    07:00 +30°C° 0 mm 3 mps 751 mmHg 68%
    08:00 +33°C° 0 mm 4 mps 751 mmHg 59%
    09:00 +35°C° 0 mm 4 mps 751 mmHg 51%
    10:00 +37°C° 0 mm 3 mps 751 mmHg 43%
    11:00 +39°C° 0 mm 2 mps 750 mmHg 35%
    12:00 +40°C° 0 mm 3 mps 749 mmHg 31%
    13:00 +42°C° 0 mm 3 mps 749 mmHg 28%
    14:00 +43°C° 0 mm 4 mps 748 mmHg 24%
    15:00 +40°C° 0.4 mm 4 mps 748 mmHg 34%
    16:00 +37°C° 0.4 mm 4 mps 747 mmHg 45%
    17:00 +34°C° 0.4 mm 4 mps 747 mmHg 55%
    18:00 +33°C° 0.4 mm 4 mps 748 mmHg 57%
    19:00 +31°C° 0.4 mm 3 mps 749 mmHg 60%
    20:00 +30°C° 0.4 mm 3 mps 749 mmHg 62%
    21:00 +30°C° 0 mm 3 mps 750 mmHg 68%
    22:00 +29°C° 0 mm 2 mps 750 mmHg 75%
    23:00 +28°C° 0 mm 2 mps 750 mmHg 81%

    10 April, Friday

    Time Temperature Precipitation Wind Pressure Humidity
    00:00 +28°C° 0 mm 2 mps 749 mmHg 85%
    01:00 +27°C° 0 mm 2 mps 749 mmHg 88%
    02:00 +27°C° 0 mm 2 mps 748 mmHg 92%
    03:00 +27°C° 0 mm 2 mps 749 mmHg 93%
    04:00 +26°C° 0 mm 2 mps 749 mmHg 94%
    05:00 +26°C° 0 mm 2 mps 749 mmHg 95%
    06:00 +28°C° 0 mm 3 mps 750 mmHg 85%
    07:00 +29°C° 0 mm 3 mps 751 mmHg 75%
    08:00 +32°C° 0 mm 4 mps 751 mmHg 65%
    09:00 +34°C° 0 mm 4 mps 751 mmHg 54%
    10:00 +36°C° 0 mm 4 mps 751 mmHg 43%
    11:00 +38°C° 0 mm 3 mps 751 mmHg 32%
    12:00 +39°C° 0 mm 3 mps 750 mmHg 29%
    13:00 +40°C° 0 mm 3 mps 749 mmHg 26%
    14:00 +41°C° 0 mm 2 mps 748 mmHg 23%
    15:00 +41°C° 0 mm 4 mps 748 mmHg 27%
    16:00 +40°C° 0 mm 5 mps 748 mmHg 32%
    17:00 +38°C° 0 mm 7 mps 748 mmHg 37%
    18:00 +35°C° 0 mm 6 mps 749 mmHg 47%
    19:00 +32°C° 0 mm 4 mps 749 mmHg 57%
    20:00 +29°C° 0 mm 3 mps 750 mmHg 68%
    21:00 +28°C° 0 mm 2 mps 750 mmHg 71%
    22:00 +28°C° 0 mm 1 mps 751 mmHg 75%
    23:00 +25°C° 0 mm 0 mps 751 mmHg 79%

    11 April, Saturday

    Time Temperature Precipitation Wind Pressure Humidity
    00:00 +25°C° 0 mm 0 mps 751 mmHg 80%
    01:00 +24°C° 0 mm 0 mps 750 mmHg 82%
    02:00 +26°C° 0 mm 1 mps 750 mmHg 84%
    03:00 +26°C° 0 mm 1 mps 750 mmHg 86%
    04:00 +26°C° 0 mm 1 mps 750 mmHg 87%
    05:00 +25°C° 0 mm 1 mps 751 mmHg 89%
    06:00 +27°C° 0 mm 2 mps 751 mmHg 80%
    07:00 +29°C° 0 mm 2 mps 752 mmHg 72%
    08:00 +31°C° 0 mm 3 mps 752 mmHg 63%
    09:00 +34°C° 0 mm 3 mps 752 mmHg 52%
    10:00 +36°C° 0 mm 3 mps 752 mmHg 41%
    11:00 +38°C° 0 mm 3 mps 751 mmHg 30%
    12:00 +41°C° 0 mm 4 mps 751 mmHg 26%
    13:00 +42°C° 0 mm 4 mps 750 mmHg 22%
    14:00 +43°C° 0 mm 5 mps 749 mmHg 18%
    15:00 +41°C° 0 mm 6 mps 749 mmHg 25%
    16:00 +39°C° 0 mm 6 mps 749 mmHg 32%
    17:00 +36°C° 0 mm 7 mps 748 mmHg 39%
    18:00 +33°C° 0 mm 6 mps 749 mmHg 51%
    19:00 +30°C° 0 mm 4 mps 750 mmHg 62%
    20:00 +28°C° 0 mm 2 mps 750 mmHg 74%
    21:00 +27°C° 0 mm 2 mps 751 mmHg 77%
    22:00 +27°C° 0 mm 1 mps 751 mmHg 80%
    23:00 +25°C° 0 mm 0 mps 751 mmHg 83%
    Show more